Find Local Weather

World > North America > United States > Washington

Silverdale, Washington Regional Weather

Lat: 47.64N, Lon: 122.69W
Wx Zone: WAZ558
Warning FLW WEATHER ALERT - (More Info. Click Here) Warning
Feedback
Expires:201808150600;;082754
ASUS46 KSEW 150510
RWRWA 

WASHINGTON REGIONAL WEATHER ROUNDUP
NATIONAL WEATHER SERVICE SEATTLE WA
1000 PM PDT TUE AUG 14 2018

NOTE:"FAIR" INDICATES FEW OR NO CLOUDS BELOW 12,000 FEET WITH NO 
SIGNIFICANT WEATHER AND/OR OBSTRUCTIONS TO VISIBILITY.


WAZ507-509-555>559-150600-
SEATTLE, TACOMA, EVERETT, AND VICINITY
  
CITY           SKY/WX    TMP DP  RH WIND       PRES   REMARKS
EVERETT        MOCLDY    67  58  72 NW3       29.87R                  
BOEING FIELD   CLEAR     72  57  59 NW3       29.83R HAZE             
RENTON         NOT AVBL                                               
SEATAC AIRPORT MOCLDY    74  55  51 N7        29.85R HAZE             
JBLM-MCCHORD   CLEAR     73  56  56 CALM      29.84R HAZE             
PUYALLUP       MOCLDY    66  61  82 CALM      29.85S                  
BREMERTON      CLEAR     70  53  54 NE7       29.86R HAZE             
JBLM-FT LEWIS  CLEAR     73  57  56 CALM      29.83S HAZE             
TACOMA NARROWS CLOUDY    73  54  51 N7        29.84R                  
$$
 

SKY/WX - Weather  TMP - Temperature  DP - Dewpoint  RH - Relative Humidity
WIND - Wind Direction/Speed PRES - Barometric Pressure